Regional Weather Roundup
Issued by NWS

Home | Current Version | Previous Version | Graphics & Text | Print | Product List | Glossary On
Versions: 1 2 3 4 5 6 7 8 9 10 11 12 13 14 15 16 17 18 19 20 21 22 23 24 25 26 27 28 29 30 31 32 33 34 35 36 37 38 39 40 41 42 43 44 45 46 47 48 49 50
000
ASUS43 KDTX 051110
RWRMI
MICHIGAN HOURLY REGIONAL WEATHER ROUNDUP
NATIONAL WEATHER SERVICE DETROIT/PONTIAC MI
700 AM EDT THU MAY 05 2016

NOTE: "FAIR" INDICATES FEW OR NO CLOUDS BELOW 12,000 FEET WITH NO
SIGNIFICANT WEATHER AND/OR OBSTRUCTION TO VISIBILITY.

MIZ047>049-052>055-059>063-066>070-074>076-081>083-051200-
SOUTHEAST LOWER MICHIGAN

CITY           SKY/WX    TMP DP  RH WIND       PRES   REMARKS
ADRIAN         CLOUDY    45  42  89 N12       29.79R
ALMA           PTCLDY    42  41  97 N9        29.87R
ANN ARBOR      PTCLDY    44  42  93 N14       29.79R
BAD AXE        CLEAR     41  40  99 N7        29.85R
CARO           CLEAR     42  40  95 N5        29.84R
DETROIT CITY   CLEAR     44  40  85 N12       29.79R
DETROIT        MOCLDY    44  41  89 N12       29.79R FOG
FLINT          CLEAR     46  41  82 N8        29.84R
GROSSE ILE     PTCLDY    45  41  87 N9        29.77R
HILLSDALE      CLOUDY    45  41  88 N10G18    29.80R
HOWELL         CLOUDY    45  43  93 N7        29.83R

CITY           SKY/WX    TMP DP  RH WIND       PRES   REMARKS
JACKSON        CLOUDY    45  42  89 N14       29.82R
LAMBERTVILLE   PTCLDY    46  43  90 N5        29.78R
LANSING        CLOUDY    45  42  89 N9G18     29.86R
LAPEER         FAIR      41  40  95 N3        29.83R
MASON          CLOUDY    45  42  91 N13       29.84R
MONROE         PTCLDY    45  42  92 N9        29.77R
MT. CLEMENS    CLEAR     43  42  98 N9        29.79R
PONTIAC        PTCLDY    42  40  92 N8        29.80R FOG
PORT HOPE        N/A     43  41  93 NW9       29.84R
PORT HURON     CLEAR     43  39  87 N5        29.80R
TRI CITIES     CLEAR     44  41  89 N9        29.87R
MIDLAND        FAIR      42  42  98 N6        29.87R
TROY           CLEAR     45  42  89 N8        29.82R
SAGINAW HB     CLEAR     45  41  87 N6        29.85R
$$
MIZ043>046-050>051-056>058-064>065-071>073-077>080-051200-
SOUTHWEST LOWER MICHIGAN

CITY           SKY/WX    TMP DP  RH WIND       PRES   REMARKS
BATTLE CREEK   CLOUDY    45  41  86 NE14G20   29.84R
BENTON HARBOR  CLOUDY    44  40  85 VRB6      29.87R
BIG RAPIDS     CLEAR     38  35  89 N5        29.89R WCI  35
COLDWATER      CLOUDY    45  43  93 N10G18    29.82R
FREMONT        FAIR      37  37  99 N5        29.89R WCI  33
HOLLAND        CLEAR    N/A N/A N/A N5        29.89R
GRAND RAPIDS   CLOUDY    44  41  89 N7        29.88R
IONIA          CLOUDY    43  41  93 N6        29.86R
KALAMAZOO      CLOUDY    46  41  82 N13       29.85R
LUDINGTON      CLOUDY    38  37  93 N6        29.95R WCI  34
MARSHALL       CLOUDY    45  42  90 N6        29.82R
MOUNT PLEASANT   N/A     41  40  97 NW5       29.87R
MUSKEGON       CLEAR     40  35  83 N9        29.90R WCI  34
SOUTH HAVEN    CLOUDY    43  41  93 NE6       29.88R
$$
MIZ016>042-051200-
NORTHERN LOWER MICHIGAN

CITY           SKY/WX    TMP DP  RH WIND       PRES   REMARKS
ALPENA         CLOUDY    42  40  92 NW8       29.91R
BEAVER ISLAND  CLEAR     37  36  94 NW6       29.96R WCI  33
BELLAIRE       CLEAR     39  36  89 CALM      29.95R
CADILLAC       CLOUDY    38  37  96 N5        29.90R WCI  35
CHARLEVOIX     CLEAR     38  37  99 NW5       29.98R WCI  34
FRANKFORT      PTCLDY    38  37  95 CALM      29.95R
GAYLORD        CLOUDY    41  39  93 VRB3      29.92R
GRAYLING       CLOUDY    43  41  93 N6        29.93R
HARBOR SPRINGS CLEAR     39  37  95 NW5       29.94R
HOUGHTON LAKE  CLOUDY    42  40  92 N9        29.91R
MANISTEE       CLOUDY    39  34  81 N3        29.96R
OSCODA         CLEAR     42  41  94 N8        29.88R
PELLSTON       CLEAR     33  32  96 W5        29.94R WCI  29
ROGERS CITY    CLEAR     41  39  93 NW7       29.93R
TRAVERSE CITY  CLOUDY    42  37  82 N6        29.94R
$$
MIZ007>008-015-051200-
EASTERN UPPER MICHIGAN

CITY           SKY/WX    TMP DP  RH WIND       PRES   REMARKS
KINROSS          N/A     39  39 100 NW5       29.94R
MACKINAC ISLAN PTCLDY    39  39 100 N8        29.94R FOG     WCI  34
NEWBERRY       CLEAR     34  33  96 NW7       29.96R WCI  28
S. S. MARIE    CLOUDY    41  38  89 NW5       29.94R
MUNISING         N/A     37  34  89 N7        29.99R WCI  32
$$
MIZ004>006-011>014-085-051200-
CENTRAL UPPER MICHIGAN

CITY           SKY/WX    TMP DP  RH WIND       PRES   REMARKS
MANISTIQUE     CLEAR     32  32  99 N7        29.98R WCI  26
ESCANABA       CLEAR     34  30  86 N6        30.00R WCI  29
MENOMINEE      CLEAR     32  30  93 N7        30.01S WCI  26
SAWYER-GWINN   CLEAR     28  27  93 N3        29.98R
$$
MIZ001>003-009>011-084-051200-
WESTERN UPPER MICHIGAN

CITY           SKY/WX    TMP DP  RH WIND       PRES   REMARKS
IRON MOUNTAIN  CLEAR     28  26  92 CALM      29.99R
HOUGHTON       CLEAR     31  27  85 NW5       29.99S WCI  26
COPPER HARBOR    N/A     32  31  96 W6        29.99F WCI  26
IRONWOOD         N/A     28  28 100 CALM      29.99R
$$

ABBREVIATIONS USED IN REMARKS
   TC - TEMPERATURE IN CELSIUS
  WCI - WIND CHILL INDEX
   HX - HEAT INDEX
  VSB - VISIBILITY




USA.gov is the U.S. government's official web portal to all federal, state and local government web resources and services.